Tracking 31027 objects as of 19-Jul-2025
HD Live streaming from Space Station
objects crossing your sky now

SL-8 DEB

Track SL-8 DEB now!
10-day predictions


NORAD ID: 21959
Int'l Code: 1991-009CH
Perigee: 1,501.8 km
Apogee: 1,707.0 km
Inclination: 74.0 °
Period: 118.1 minutes
Semi major axis: 7975 km
RCS: 0.0331 m2 (small)
Launch date: February 12, 1991
Source: Commonwealth of Independent States (former USSR) (CIS)
Launch site: PLESETSK MISSILE AND SPACE COMPLEX (PKMTR)

Note: This is SATELLITE DEBRIS
Your satellite tracking list
Your tracking list is empty




NASA's NSSDC Master Catalog

Two Line Element Set (TLE):
1 21959U 91009CH  25199.08457933  .00000007  00000-0  20840-3 0  9994
2 21959  73.9652 232.4344 0128613 204.1402 183.8040 12.18915116527706
Source of the keplerian elements: AFSPC